Year,Month,Day,Hour,Minute,Value (Times are PST for temperature in C)
2009,07,25,00,00,16.50
2009,07,25,00,01,16.60
2009,07,25,00,02,16.60
2009,07,25,00,03,16.70
2009,07,25,00,04,16.70
2009,07,25,00,05,16.70
2009,07,25,00,06,16.80
2009,07,25,00,07,16.80
2009,07,25,00,08,16.90
2009,07,25,00,09,17.00
2009,07,25,00,10,17.10
2009,07,25,00,11,17.10
2009,07,25,00,12,17.20
2009,07,25,00,13,17.30
2009,07,25,00,14,17.30
2009,07,25,00,15,17.40
2009,07,25,00,16,17.50
2009,07,25,00,17,17.50
2009,07,25,00,18,17.60
2009,07,25,00,19,17.60
2009,07,25,00,20,17.70
2009,07,25,00,21,17.70
2009,07,25,00,22,17.80
2009,07,25,00,23,17.90
2009,07,25,00,24,18.00
2009,07,25,00,25,18.10
2009,07,25,00,26,18.10
2009,07,25,00,27,18.20
2009,07,25,00,28,18.20
2009,07,25,00,29,18.20
2009,07,25,00,30,18.20
2009,07,25,00,31,18.30
2009,07,25,00,32,18.40
2009,07,25,00,33,18.50
2009,07,25,00,34,18.50
2009,07,25,00,35,18.50
2009,07,25,00,36,18.60
2009,07,25,00,37,18.60
2009,07,25,00,38,18.70
2009,07,25,00,39,18.70
2009,07,25,00,40,18.80
2009,07,25,00,41,18.80
2009,07,25,00,42,18.90
2009,07,25,00,43,18.90
2009,07,25,00,44,18.90
2009,07,25,00,45,19.00
2009,07,25,00,46,19.00
2009,07,25,00,47,19.00
2009,07,25,00,48,19.10
2009,07,25,00,49,19.10
2009,07,25,00,50,19.10
2009,07,25,00,51,19.10
2009,07,25,00,52,19.10
2009,07,25,00,53,19.10
2009,07,25,00,54,19.10
2009,07,25,00,55,19.10
2009,07,25,00,56,19.10
2009,07,25,00,57,19.20
2009,07,25,00,58,19.20
2009,07,25,00,59,19.20
2009,07,25,01,00,19.20
2009,07,25,01,01,19.20
2009,07,25,01,02,19.20
2009,07,25,01,03,19.20
2009,07,25,01,04,19.20
2009,07,25,01,05,19.10
2009,07,25,01,06,19.10
2009,07,25,01,07,19.10
2009,07,25,01,08,19.00
2009,07,25,01,09,18.90
2009,07,25,01,10,18.90
2009,07,25,01,11,18.90
2009,07,25,01,12,18.80
2009,07,25,01,13,18.80
2009,07,25,01,14,18.70
2009,07,25,01,15,18.60
2009,07,25,01,16,18.60
2009,07,25,01,17,18.50
2009,07,25,01,18,18.40
2009,07,25,01,19,18.40
2009,07,25,01,20,18.30
2009,07,25,01,21,18.30
2009,07,25,01,22,18.30
2009,07,25,01,23,18.20
2009,07,25,01,24,18.20
2009,07,25,01,25,18.20
2009,07,25,01,26,18.10
2009,07,25,01,27,18.10
2009,07,25,01,28,18.00
2009,07,25,01,29,18.00
2009,07,25,01,30,17.90
2009,07,25,01,31,17.90
2009,07,25,01,32,17.90
2009,07,25,01,33,17.90
2009,07,25,01,34,17.90
2009,07,25,01,35,17.90
2009,07,25,01,36,17.90
2009,07,25,01,37,17.80
2009,07,25,01,38,17.80
2009,07,25,01,39,17.80
2009,07,25,01,40,17.80
2009,07,25,01,41,17.80
2009,07,25,01,42,17.80
2009,07,25,01,43,17.80
2009,07,25,01,44,17.80
2009,07,25,01,45,17.80
2009,07,25,01,46,17.80
2009,07,25,01,47,17.80
2009,07,25,01,48,17.80
2009,07,25,01,49,17.80
2009,07,25,01,50,17.70
2009,07,25,01,51,17.70
2009,07,25,01,52,17.60
2009,07,25,01,53,17.50
2009,07,25,01,54,17.30
2009,07,25,01,55,17.20
2009,07,25,01,56,17.00
2009,07,25,01,57,16.80
2009,07,25,01,58,16.60
2009,07,25,01,59,16.30
2009,07,25,02,00,16.00
2009,07,25,02,01,15.80
2009,07,25,02,02,15.60
2009,07,25,02,03,15.40
2009,07,25,02,04,15.20
2009,07,25,02,05,15.00
2009,07,25,02,06,15.00
2009,07,25,02,07,14.90
2009,07,25,02,08,14.80
2009,07,25,02,09,14.70
2009,07,25,02,10,14.60
2009,07,25,02,11,14.50
2009,07,25,02,12,14.40
2009,07,25,02,13,14.30
2009,07,25,02,14,14.20
2009,07,25,02,15,14.20
2009,07,25,02,16,14.10
2009,07,25,02,17,13.90
2009,07,25,02,18,13.90
2009,07,25,02,19,13.80
2009,07,25,02,20,13.80
2009,07,25,02,21,13.70
2009,07,25,02,22,13.70
2009,07,25,02,23,13.70
2009,07,25,02,24,13.60
2009,07,25,02,25,13.60
2009,07,25,02,26,13.60
2009,07,25,02,27,13.60
2009,07,25,02,28,13.60
2009,07,25,02,29,13.50
2009,07,25,02,30,13.50
2009,07,25,02,31,13.50
2009,07,25,02,32,13.40
2009,07,25,02,33,13.40
2009,07,25,02,34,13.40
2009,07,25,02,35,13.40
2009,07,25,02,36,13.30
2009,07,25,02,37,13.30
2009,07,25,02,38,13.30
2009,07,25,02,39,13.30
2009,07,25,02,40,13.30
2009,07,25,02,41,13.30
2009,07,25,02,42,13.30
2009,07,25,02,43,13.30
2009,07,25,02,44,13.30
2009,07,25,02,45,13.30
2009,07,25,02,46,13.30
2009,07,25,02,47,13.20
2009,07,25,02,48,13.20
2009,07,25,02,49,13.20
2009,07,25,02,50,13.10
2009,07,25,02,51,13.10
2009,07,25,02,52,13.10
2009,07,25,02,53,13.00
2009,07,25,02,54,12.90
2009,07,25,02,55,12.90
2009,07,25,02,56,12.90
2009,07,25,02,57,12.80
2009,07,25,02,58,12.80
2009,07,25,02,59,12.80
2009,07,25,03,00,12.80
2009,07,25,03,01,12.80
2009,07,25,03,02,12.80
2009,07,25,03,03,12.70
2009,07,25,03,04,12.70
2009,07,25,03,05,12.70
2009,07,25,03,06,12.70
2009,07,25,03,07,12.70
2009,07,25,03,08,12.70
2009,07,25,03,09,12.80
2009,07,25,03,10,12.80
2009,07,25,03,11,12.80
2009,07,25,03,12,12.80
2009,07,25,03,13,12.80
2009,07,25,03,14,12.80
2009,07,25,03,15,12.90
2009,07,25,03,16,12.90
2009,07,25,03,17,12.90
2009,07,25,03,18,12.90
2009,07,25,03,19,12.90
2009,07,25,03,20,12.90
2009,07,25,03,21,13.00
2009,07,25,03,22,13.00
2009,07,25,03,23,13.00
2009,07,25,03,24,13.00
2009,07,25,03,25,13.00
2009,07,25,03,26,13.10
2009,07,25,03,27,13.10
2009,07,25,03,28,13.10
2009,07,25,03,29,13.10
2009,07,25,03,30,13.10
2009,07,25,03,35,13.10
2009,07,25,03,36,13.10
2009,07,25,03,37,13.20
2009,07,25,03,38,13.20
2009,07,25,03,39,13.20
2009,07,25,03,40,13.20
2009,07,25,03,41,13.20
2009,07,25,03,42,13.20
2009,07,25,03,43,13.30
2009,07,25,03,44,13.30
2009,07,25,03,45,13.30
2009,07,25,03,46,13.30
2009,07,25,03,47,13.30
2009,07,25,03,48,13.30
2009,07,25,03,49,13.30
2009,07,25,03,50,13.40
2009,07,25,03,51,13.40
2009,07,25,03,52,13.40
2009,07,25,03,53,13.40
2009,07,25,03,54,13.40
2009,07,25,03,55,13.40
2009,07,25,03,56,13.50
2009,07,25,03,57,13.50
2009,07,25,03,58,13.50
2009,07,25,03,59,13.60
2009,07,25,04,00,13.60
2009,07,25,04,01,13.60
2009,07,25,04,02,13.60
2009,07,25,04,03,13.70
2009,07,25,04,04,13.70
2009,07,25,04,05,13.70
2009,07,25,04,06,13.70
2009,07,25,04,07,13.70
2009,07,25,04,08,13.70
2009,07,25,04,09,13.80
2009,07,25,04,10,13.80
2009,07,25,04,11,13.80
2009,07,25,04,12,13.80
2009,07,25,04,13,13.80
2009,07,25,04,14,13.80
2009,07,25,04,15,13.80
2009,07,25,04,16,13.80
2009,07,25,04,17,13.80
2009,07,25,04,18,13.80
2009,07,25,04,19,13.90
2009,07,25,04,20,13.90
2009,07,25,04,21,13.90
2009,07,25,04,22,13.90
2009,07,25,04,23,13.90
2009,07,25,04,24,13.90
2009,07,25,04,25,13.90
2009,07,25,04,26,14.00
2009,07,25,04,27,14.00
2009,07,25,04,28,14.00
2009,07,25,04,29,14.10
2009,07,25,04,30,14.10
2009,07,25,04,31,14.10
2009,07,25,04,32,14.20
2009,07,25,04,33,14.20
2009,07,25,04,34,14.20
2009,07,25,04,35,14.20
2009,07,25,04,36,14.20
2009,07,25,04,37,14.20
2009,07,25,04,38,14.30
2009,07,25,04,39,14.30
2009,07,25,04,40,14.30
2009,07,25,04,41,14.30
2009,07,25,04,42,14.30
2009,07,25,04,43,14.30
2009,07,25,04,44,14.30
2009,07,25,04,45,14.30
2009,07,25,04,46,14.30
2009,07,25,04,47,14.30
2009,07,25,04,48,14.30
2009,07,25,04,49,14.20
2009,07,25,04,50,14.20
2009,07,25,04,51,14.10
2009,07,25,04,52,14.00
2009,07,25,04,53,13.90
2009,07,25,04,54,13.80
2009,07,25,04,55,13.80
2009,07,25,04,56,13.80
2009,07,25,04,57,13.70
2009,07,25,04,58,13.70
2009,07,25,04,59,13.70
2009,07,25,05,00,13.60
2009,07,25,05,01,13.60
2009,07,25,05,02,13.60
2009,07,25,05,03,13.60
2009,07,25,05,04,13.60
2009,07,25,05,05,13.60
2009,07,25,05,06,13.60
2009,07,25,05,07,13.60
2009,07,25,05,08,13.60
2009,07,25,05,09,13.60
2009,07,25,05,10,13.60
2009,07,25,05,11,13.60
2009,07,25,05,12,13.60
2009,07,25,05,13,13.60
2009,07,25,05,14,13.60
2009,07,25,05,15,13.60
2009,07,25,05,16,13.60
2009,07,25,05,17,13.70
2009,07,25,05,18,13.70
2009,07,25,05,19,13.70
2009,07,25,05,20,13.70
2009,07,25,05,21,13.70
2009,07,25,05,22,13.80
2009,07,25,05,23,13.80
2009,07,25,05,24,13.80
2009,07,25,05,25,13.80
2009,07,25,05,26,13.90
2009,07,25,05,27,13.90
2009,07,25,05,28,13.90
2009,07,25,05,29,13.90
2009,07,25,05,30,14.00
2009,07,25,05,31,14.00
2009,07,25,05,32,14.00
2009,07,25,05,33,14.10
2009,07,25,05,34,14.10
2009,07,25,05,35,14.10
2009,07,25,05,36,14.10
2009,07,25,05,37,14.20
2009,07,25,05,38,14.20
2009,07,25,05,39,14.20
2009,07,25,05,40,14.20
2009,07,25,05,41,14.30
2009,07,25,05,42,14.30
2009,07,25,05,43,14.30
2009,07,25,05,44,14.30
2009,07,25,05,45,14.40
2009,07,25,05,46,14.40
2009,07,25,05,47,14.40
2009,07,25,05,48,14.40
2009,07,25,05,49,14.40
2009,07,25,05,50,14.40
2009,07,25,05,51,14.50
2009,07,25,05,52,14.50
2009,07,25,05,53,14.50
2009,07,25,05,54,14.60
2009,07,25,05,55,14.60
2009,07,25,05,56,14.60
2009,07,25,05,57,14.60
2009,07,25,05,58,14.70
2009,07,25,05,59,14.70
2009,07,25,06,00,14.70
2009,07,25,06,01,14.70
2009,07,25,06,02,14.80
2009,07,25,06,03,14.80
2009,07,25,06,04,14.80
2009,07,25,06,05,14.80
2009,07,25,06,06,14.80
2009,07,25,06,07,14.80
2009,07,25,06,08,14.80
2009,07,25,06,09,14.80
2009,07,25,06,10,14.90
2009,07,25,06,11,14.90
2009,07,25,06,12,14.90
2009,07,25,06,13,14.90
2009,07,25,06,14,14.90
2009,07,25,06,15,14.90
2009,07,25,06,16,14.90
2009,07,25,06,17,14.90
2009,07,25,06,18,14.90
2009,07,25,06,19,14.90
2009,07,25,06,20,15.00
2009,07,25,06,21,15.00
2009,07,25,06,22,15.00
2009,07,25,06,23,15.00
2009,07,25,06,24,15.00
2009,07,25,06,25,15.00
2009,07,25,06,26,15.00
2009,07,25,06,27,15.00
2009,07,25,06,28,15.00
2009,07,25,06,29,15.00
2009,07,25,06,30,15.00
2009,07,25,06,31,15.00
2009,07,25,06,32,15.00
2009,07,25,06,33,15.00
2009,07,25,06,34,15.00
2009,07,25,06,35,15.00
2009,07,25,06,36,15.00
2009,07,25,06,37,15.00
2009,07,25,06,38,15.00
2009,07,25,06,39,15.00
2009,07,25,06,40,15.10
2009,07,25,06,41,15.10
2009,07,25,06,42,15.10
2009,07,25,06,43,15.20
2009,07,25,06,44,15.20
2009,07,25,06,45,15.20
2009,07,25,06,46,15.20
2009,07,25,06,47,15.30
2009,07,25,06,48,15.30
2009,07,25,06,49,15.30
2009,07,25,06,50,15.30
2009,07,25,06,51,15.30
2009,07,25,06,52,15.30
2009,07,25,06,53,15.30
2009,07,25,06,54,15.30
2009,07,25,06,55,15.30
2009,07,25,06,56,15.40
2009,07,25,06,57,15.40
2009,07,25,06,58,15.50
2009,07,25,06,59,15.50
2009,07,25,07,00,15.50
2009,07,25,07,01,15.60
2009,07,25,07,02,15.60
2009,07,25,07,03,15.60
2009,07,25,07,04,15.70
2009,07,25,07,05,15.70
2009,07,25,07,06,15.80
2009,07,25,07,07,15.80
2009,07,25,07,08,15.80
2009,07,25,07,09,15.90
2009,07,25,07,10,15.90
2009,07,25,07,11,16.00
2009,07,25,07,12,16.10
2009,07,25,07,13,16.10
2009,07,25,07,14,16.20
2009,07,25,07,15,16.20
2009,07,25,07,16,16.30
2009,07,25,07,17,16.30
2009,07,25,07,18,16.30
2009,07,25,07,19,16.40
2009,07,25,07,20,16.40
2009,07,25,07,21,16.50
2009,07,25,07,22,16.50
2009,07,25,07,23,16.60
2009,07,25,07,24,16.60
2009,07,25,07,25,16.60
2009,07,25,07,26,16.70
2009,07,25,07,27,16.70
2009,07,25,07,28,16.70
2009,07,25,07,29,16.70
2009,07,25,07,30,16.80
2009,07,25,07,31,16.80
2009,07,25,07,32,16.80
2009,07,25,07,33,16.80
2009,07,25,07,34,16.80
2009,07,25,07,35,16.80
2009,07,25,07,36,16.90
2009,07,25,07,37,16.90
2009,07,25,07,38,16.90
2009,07,25,07,39,16.90
2009,07,25,07,40,16.90
2009,07,25,07,41,16.90
2009,07,25,07,42,17.00
2009,07,25,07,43,17.00
2009,07,25,07,44,17.00
2009,07,25,07,45,17.00
2009,07,25,07,46,17.10
2009,07,25,07,47,17.10
2009,07,25,07,48,17.10
2009,07,25,07,49,17.10
2009,07,25,07,50,17.10
2009,07,25,07,51,17.10
2009,07,25,07,52,17.10
2009,07,25,07,53,17.10
2009,07,25,07,54,17.10
2009,07,25,07,55,17.10
2009,07,25,07,56,17.10
2009,07,25,07,57,17.10
2009,07,25,07,58,17.10
2009,07,25,07,59,17.10
2009,07,25,08,00,17.10
2009,07,25,08,01,17.20
2009,07,25,08,02,17.20
2009,07,25,08,03,17.20
2009,07,25,08,04,17.20
2009,07,25,08,05,17.20
2009,07,25,08,06,17.30
2009,07,25,08,07,17.30
2009,07,25,08,08,17.30
2009,07,25,08,09,17.40
2009,07,25,08,10,17.40
2009,07,25,08,11,17.40
2009,07,25,08,12,17.50
2009,07,25,08,13,17.50
2009,07,25,08,14,17.60
2009,07,25,08,15,17.70
2009,07,25,08,16,17.80
2009,07,25,08,17,17.90
2009,07,25,08,18,17.90
2009,07,25,08,19,17.90
2009,07,25,08,20,17.90
2009,07,25,08,21,17.90
2009,07,25,08,22,17.90
2009,07,25,08,23,17.90
2009,07,25,08,24,17.80
2009,07,25,08,25,17.70
2009,07,25,08,26,17.70
2009,07,25,08,27,17.60
2009,07,25,08,28,17.60
2009,07,25,08,29,17.60
2009,07,25,08,30,17.60
2009,07,25,08,31,17.60
2009,07,25,08,32,17.50
2009,07,25,08,33,17.60
2009,07,25,08,34,17.60
2009,07,25,08,35,17.60
2009,07,25,08,36,17.60
2009,07,25,08,37,17.60
2009,07,25,08,38,17.70
2009,07,25,08,39,17.70
2009,07,25,08,40,17.70
2009,07,25,08,41,17.70
2009,07,25,08,42,17.80
2009,07,25,08,43,17.80
2009,07,25,08,44,17.80
2009,07,25,08,45,17.90
2009,07,25,08,46,17.90
2009,07,25,08,47,18.00
2009,07,25,08,48,18.10
2009,07,25,08,49,18.10
2009,07,25,08,50,18.20
2009,07,25,08,51,18.30
2009,07,25,08,52,18.40
2009,07,25,08,53,18.50
2009,07,25,08,54,18.60
2009,07,25,08,55,18.70
2009,07,25,08,56,18.70
2009,07,25,08,57,18.80
2009,07,25,08,58,18.80
2009,07,25,08,59,18.90
2009,07,25,09,00,18.90
2009,07,25,09,01,19.00
2009,07,25,09,02,19.00
2009,07,25,09,03,19.20
2009,07,25,09,04,19.20
2009,07,25,09,05,19.30
2009,07,25,09,06,19.30
2009,07,25,09,07,19.30
2009,07,25,09,08,19.20
2009,07,25,09,09,19.10
2009,07,25,09,10,19.10
2009,07,25,09,11,19.00
2009,07,25,09,12,18.90
2009,07,25,09,13,18.90
2009,07,25,09,14,18.90
2009,07,25,09,15,18.90
2009,07,25,09,16,18.90
2009,07,25,09,17,19.00
2009,07,25,09,18,19.00
2009,07,25,09,19,19.10
2009,07,25,09,20,19.20
2009,07,25,09,21,19.30
2009,07,25,09,22,19.40
2009,07,25,09,23,19.50
2009,07,25,09,24,19.70
2009,07,25,09,25,19.70
2009,07,25,09,26,19.80
2009,07,25,09,27,19.80
2009,07,25,09,28,19.90
2009,07,25,09,29,19.90
2009,07,25,09,30,19.90
2009,07,25,09,31,19.80
2009,07,25,09,32,19.70
2009,07,25,09,33,19.50
2009,07,25,09,34,19.40
2009,07,25,09,35,19.30
2009,07,25,09,36,19.10
2009,07,25,09,37,18.90
2009,07,25,09,38,18.70
2009,07,25,09,39,18.50
2009,07,25,09,40,18.30
2009,07,25,09,41,18.00
2009,07,25,09,42,17.80
2009,07,25,09,43,17.60
2009,07,25,09,44,17.60
2009,07,25,09,45,17.50
2009,07,25,09,46,17.40
2009,07,25,09,47,17.30
2009,07,25,09,48,17.30
2009,07,25,09,49,17.20
2009,07,25,09,50,17.10
2009,07,25,09,51,17.00
2009,07,25,09,52,16.90
2009,07,25,09,53,16.70
2009,07,25,09,54,16.50
2009,07,25,09,55,16.30
2009,07,25,09,56,16.20
2009,07,25,09,57,16.20
2009,07,25,09,58,16.10
2009,07,25,09,59,16.10
2009,07,25,10,00,16.10
2009,07,25,10,01,16.10
2009,07,25,10,02,16.10
2009,07,25,10,03,16.20
2009,07,25,10,04,16.20
2009,07,25,10,05,16.40
2009,07,25,10,06,16.50
2009,07,25,10,07,16.60
2009,07,25,10,08,16.70
2009,07,25,10,09,17.00
2009,07,25,10,10,17.20
2009,07,25,10,11,17.30
2009,07,25,10,12,17.40
2009,07,25,10,13,17.50
2009,07,25,10,14,17.60
2009,07,25,10,15,17.70
2009,07,25,10,16,17.70
2009,07,25,10,17,17.80
2009,07,25,10,18,17.90
2009,07,25,10,19,18.00
2009,07,25,10,20,18.10
2009,07,25,10,21,18.10
2009,07,25,10,22,18.20
2009,07,25,10,23,18.30
2009,07,25,10,24,18.40
2009,07,25,10,25,18.40
2009,07,25,10,26,18.50
2009,07,25,10,27,18.50
2009,07,25,10,28,18.60
2009,07,25,10,29,18.70
2009,07,25,10,30,18.70
2009,07,25,10,31,18.80
2009,07,25,10,32,18.90
2009,07,25,10,33,19.00
2009,07,25,10,34,19.10
2009,07,25,10,35,19.30
2009,07,25,10,36,19.50
2009,07,25,10,37,19.80
2009,07,25,10,38,19.90
2009,07,25,10,39,20.10
2009,07,25,10,40,20.20
2009,07,25,10,41,20.30
2009,07,25,10,42,20.40
2009,07,25,10,43,20.40
2009,07,25,10,44,20.50
2009,07,25,10,45,20.50
2009,07,25,10,46,20.50
2009,07,25,10,47,20.60
2009,07,25,10,48,20.60
2009,07,25,10,49,20.70
2009,07,25,10,50,20.80
2009,07,25,10,51,20.90
2009,07,25,10,52,21.00
2009,07,25,10,53,21.10
2009,07,25,10,54,21.20
2009,07,25,10,55,21.30
2009,07,25,10,56,21.40
2009,07,25,10,57,21.50
2009,07,25,10,58,21.60
2009,07,25,10,59,21.60
2009,07,25,11,00,21.70
2009,07,25,11,01,21.70
2009,07,25,11,02,21.80
2009,07,25,11,03,21.90
2009,07,25,11,04,22.00
2009,07,25,11,05,22.10
2009,07,25,11,06,22.20
2009,07,25,11,07,22.20
2009,07,25,11,08,22.20
2009,07,25,11,09,22.20
2009,07,25,11,10,22.10
2009,07,25,11,11,22.10
2009,07,25,11,12,22.10
2009,07,25,11,13,22.10
2009,07,25,11,14,22.10
2009,07,25,11,15,21.80
2009,07,25,11,16,21.60
2009,07,25,11,17,21.50
2009,07,25,11,18,21.40
2009,07,25,11,19,21.40
2009,07,25,11,20,21.30
2009,07,25,11,21,21.30
2009,07,25,11,22,21.40
2009,07,25,11,23,21.40
2009,07,25,11,24,21.40
2009,07,25,11,25,21.40
2009,07,25,11,26,21.40
2009,07,25,11,27,21.40
2009,07,25,11,28,21.50
2009,07,25,11,29,21.60
2009,07,25,11,30,21.60
2009,07,25,11,31,21.70
2009,07,25,11,32,21.70
2009,07,25,11,33,21.60
2009,07,25,11,34,21.50
2009,07,25,11,35,21.50
2009,07,25,11,36,21.40
2009,07,25,11,37,21.40
2009,07,25,11,38,21.30
2009,07,25,11,39,21.30
2009,07,25,11,40,21.30
2009,07,25,11,41,21.20
2009,07,25,11,42,21.10
2009,07,25,11,43,21.10
2009,07,25,11,44,21.10
2009,07,25,11,45,21.20
2009,07,25,11,46,21.30
2009,07,25,11,47,21.50
2009,07,25,11,48,21.70
2009,07,25,11,49,21.80
2009,07,25,11,50,21.80
2009,07,25,11,51,21.70
2009,07,25,11,52,21.60
2009,07,25,11,53,21.40
2009,07,25,11,54,21.30
2009,07,25,11,55,21.20
2009,07,25,11,56,21.10
2009,07,25,11,57,21.20
2009,07,25,11,58,21.30
2009,07,25,11,59,21.40
2009,07,25,12,00,21.40
2009,07,25,12,01,21.50
2009,07,25,12,02,21.60
2009,07,25,12,03,21.70
2009,07,25,12,04,21.70
2009,07,25,12,05,21.70
2009,07,25,12,06,21.80
2009,07,25,12,07,21.80
2009,07,25,12,08,21.90
2009,07,25,12,09,22.10
2009,07,25,12,10,22.20
2009,07,25,12,11,22.30
2009,07,25,12,12,22.30
2009,07,25,12,13,22.30
2009,07,25,12,14,22.10
2009,07,25,12,15,21.90
2009,07,25,12,16,21.80
2009,07,25,12,17,21.70
2009,07,25,12,18,21.70
2009,07,25,12,19,21.70
2009,07,25,12,20,21.70
2009,07,25,12,21,21.70
2009,07,25,12,22,21.60
2009,07,25,12,23,21.50
2009,07,25,12,24,21.40
2009,07,25,12,25,21.40
2009,07,25,12,26,21.50
2009,07,25,12,27,21.60
2009,07,25,12,28,21.70
2009,07,25,12,29,21.80
2009,07,25,12,30,21.90
2009,07,25,12,31,22.00
2009,07,25,12,32,22.10
2009,07,25,12,33,22.10
2009,07,25,12,34,22.10
2009,07,25,12,35,22.00
2009,07,25,12,36,22.00
2009,07,25,12,37,21.90
2009,07,25,12,38,21.90
2009,07,25,12,39,21.90
2009,07,25,12,40,21.90
2009,07,25,12,41,21.90
2009,07,25,12,42,21.80
2009,07,25,12,43,21.80
2009,07,25,12,44,21.80
2009,07,25,12,45,21.80
2009,07,25,12,46,21.80
2009,07,25,12,47,21.90
2009,07,25,12,48,22.00
2009,07,25,12,49,22.10
2009,07,25,12,50,22.10
2009,07,25,12,51,22.10
2009,07,25,12,52,22.10
2009,07,25,12,53,22.20
2009,07,25,12,54,22.30
2009,07,25,12,55,22.30
2009,07,25,12,56,22.40
2009,07,25,12,57,22.40
2009,07,25,12,58,22.40
2009,07,25,12,59,22.40
2009,07,25,13,00,22.50
2009,07,25,13,01,22.50
2009,07,25,13,02,22.60
2009,07,25,13,03,22.70
2009,07,25,13,04,22.70
2009,07,25,13,05,22.70
2009,07,25,13,06,22.80
2009,07,25,13,07,22.70
2009,07,25,13,08,22.50
2009,07,25,13,09,22.40
2009,07,25,13,10,22.30
2009,07,25,13,11,22.30
2009,07,25,13,12,22.20
2009,07,25,13,13,22.10
2009,07,25,13,14,22.10
2009,07,25,13,15,22.10
2009,07,25,13,16,22.10
2009,07,25,13,17,22.00
2009,07,25,13,18,21.90
2009,07,25,13,19,22.00
2009,07,25,13,20,22.10
2009,07,25,13,21,22.10
2009,07,25,13,22,22.20
2009,07,25,13,23,22.30
2009,07,25,13,24,22.40
2009,07,25,13,25,22.50
2009,07,25,13,26,22.60
2009,07,25,13,27,22.70
2009,07,25,13,28,22.80
2009,07,25,13,29,22.90
2009,07,25,13,30,23.00
2009,07,25,13,31,23.00
2009,07,25,13,32,23.00
2009,07,25,13,33,23.00
2009,07,25,13,34,23.00
2009,07,25,13,35,22.90
2009,07,25,13,36,22.80
2009,07,25,13,37,22.70
2009,07,25,13,38,22.80
2009,07,25,13,39,22.90
2009,07,25,13,40,22.90
2009,07,25,13,41,23.00
2009,07,25,13,42,23.20
2009,07,25,13,43,23.20
2009,07,25,13,44,23.20
2009,07,25,13,45,23.30
2009,07,25,13,46,23.30
2009,07,25,13,47,23.40
2009,07,25,13,48,23.30
2009,07,25,13,49,23.20
2009,07,25,13,50,23.10
2009,07,25,13,51,23.10
2009,07,25,13,52,23.00
2009,07,25,13,53,22.90
2009,07,25,13,54,22.80
2009,07,25,13,55,22.80
2009,07,25,13,56,22.80
2009,07,25,13,57,22.90
2009,07,25,13,58,23.00
2009,07,25,13,59,23.00
2009,07,25,14,00,23.00
2009,07,25,14,01,22.90
2009,07,25,14,02,22.80
2009,07,25,14,03,22.90
2009,07,25,14,04,22.90
2009,07,25,14,05,22.80
2009,07,25,14,06,22.80
2009,07,25,14,07,22.80
2009,07,25,14,08,22.90
2009,07,25,14,09,23.00
2009,07,25,14,10,23.00
2009,07,25,14,11,23.10
2009,07,25,14,12,23.10
2009,07,25,14,13,23.10
2009,07,25,14,14,23.20
2009,07,25,14,15,23.20
2009,07,25,14,16,23.20
2009,07,25,14,17,23.20
2009,07,25,14,18,23.20
2009,07,25,14,19,23.20
2009,07,25,14,20,23.20
2009,07,25,14,21,23.20
2009,07,25,14,22,23.20
2009,07,25,14,23,23.20
2009,07,25,14,24,23.20
2009,07,25,14,25,23.30
2009,07,25,14,26,23.30
2009,07,25,14,27,23.30
2009,07,25,14,28,23.40
2009,07,25,14,29,23.50
2009,07,25,14,30,23.60
2009,07,25,14,31,23.60
2009,07,25,14,32,23.50
2009,07,25,14,33,23.50
2009,07,25,14,34,23.40
2009,07,25,14,35,23.30
2009,07,25,14,36,23.30
2009,07,25,14,37,23.30
2009,07,25,14,38,23.30
2009,07,25,14,39,23.30
2009,07,25,14,40,23.30
2009,07,25,14,41,23.40
2009,07,25,14,42,23.40
2009,07,25,14,43,23.40
2009,07,25,14,44,23.50
2009,07,25,14,45,23.50
2009,07,25,14,46,23.70
2009,07,25,14,47,23.80
2009,07,25,14,48,23.90
2009,07,25,14,49,23.90
2009,07,25,14,50,23.90
2009,07,25,14,51,24.00
2009,07,25,14,52,24.00
2009,07,25,14,53,24.00
2009,07,25,14,54,24.10
2009,07,25,14,55,24.10
2009,07,25,14,56,24.20
2009,07,25,14,57,24.20
2009,07,25,14,58,24.30
2009,07,25,14,59,24.30
2009,07,25,15,00,24.40
2009,07,25,15,01,24.50
2009,07,25,15,02,24.50
2009,07,25,15,03,24.60
2009,07,25,15,04,24.50
2009,07,25,15,05,24.40
2009,07,25,15,06,24.40
2009,07,25,15,07,24.50
2009,07,25,15,08,24.50
2009,07,25,15,09,24.60
2009,07,25,15,10,24.70
2009,07,25,15,11,24.70
2009,07,25,15,12,24.60
2009,07,25,15,13,24.50
2009,07,25,15,14,24.30
2009,07,25,15,15,24.30
2009,07,25,15,16,24.20
2009,07,25,15,17,24.10
2009,07,25,15,18,23.90
2009,07,25,15,19,23.80
2009,07,25,15,20,23.80
2009,07,25,15,21,23.80
2009,07,25,15,22,23.80
2009,07,25,15,23,23.80
2009,07,25,15,24,23.80
2009,07,25,15,25,23.80
2009,07,25,15,26,23.80
2009,07,25,15,27,23.90
2009,07,25,15,28,23.90
2009,07,25,15,29,23.90
2009,07,25,15,30,23.90
2009,07,25,15,31,23.90
2009,07,25,15,32,23.90
2009,07,25,15,33,23.90
2009,07,25,15,34,23.90
2009,07,25,15,35,23.90
2009,07,25,15,36,24.00
2009,07,25,15,37,24.00
2009,07,25,15,38,23.90
2009,07,25,15,39,23.80
2009,07,25,15,40,23.80
2009,07,25,15,41,23.70
2009,07,25,15,42,23.80
2009,07,25,15,43,23.90
2009,07,25,15,44,23.90
2009,07,25,15,45,24.00
2009,07,25,15,46,24.10
2009,07,25,15,47,24.10
2009,07,25,15,48,24.10
2009,07,25,15,49,24.00
2009,07,25,15,50,24.00
2009,07,25,15,51,23.90
2009,07,25,15,52,23.90
2009,07,25,15,53,23.90
2009,07,25,15,54,23.80
2009,07,25,15,55,23.70
2009,07,25,15,56,23.50
2009,07,25,15,57,23.40
2009,07,25,15,58,23.50
2009,07,25,15,59,23.40
2009,07,25,16,00,23.50
2009,07,25,16,01,23.60
2009,07,25,16,02,23.50
2009,07,25,16,03,23.50
2009,07,25,16,04,23.60
2009,07,25,16,05,23.60
2009,07,25,16,06,23.50
2009,07,25,16,07,23.50
2009,07,25,16,08,23.40
2009,07,25,16,09,23.50
2009,07,25,16,10,23.40
2009,07,25,16,11,23.40
2009,07,25,16,12,23.40
2009,07,25,16,13,23.50
2009,07,25,16,14,23.60
2009,07,25,16,15,23.60
2009,07,25,16,16,23.70
2009,07,25,16,17,23.70
2009,07,25,16,18,23.70
2009,07,25,16,19,23.70
2009,07,25,16,20,23.80
2009,07,25,16,21,23.80
2009,07,25,16,22,23.80
2009,07,25,16,23,23.80
2009,07,25,16,24,23.80
2009,07,25,16,25,23.90
2009,07,25,16,26,23.90
2009,07,25,16,27,23.90
2009,07,25,16,28,24.00
2009,07,25,16,29,24.10
2009,07,25,16,30,24.20
2009,07,25,16,31,24.10
2009,07,25,16,32,24.10
2009,07,25,16,33,24.10
2009,07,25,16,34,24.00
2009,07,25,16,35,24.00
2009,07,25,16,36,24.10
2009,07,25,16,37,24.10
2009,07,25,16,38,24.10
2009,07,25,16,39,24.10
2009,07,25,16,40,24.10
2009,07,25,16,41,24.20
2009,07,25,16,42,24.10
2009,07,25,16,43,24.10
2009,07,25,16,44,24.00
2009,07,25,16,45,24.00
2009,07,25,16,46,23.90
2009,07,25,16,47,23.80
2009,07,25,16,48,23.90
2009,07,25,16,49,23.80
2009,07,25,16,50,23.80
2009,07,25,16,51,23.80
2009,07,25,16,52,23.80
2009,07,25,16,53,23.80
2009,07,25,16,54,23.80
2009,07,25,16,55,23.90
2009,07,25,16,56,23.90
2009,07,25,16,57,23.90
2009,07,25,16,58,23.90
2009,07,25,16,59,23.90
2009,07,25,17,00,23.90
2009,07,25,17,01,23.90
2009,07,25,17,02,23.90
2009,07,25,17,03,23.90
2009,07,25,17,04,23.90
2009,07,25,17,05,23.90
2009,07,25,17,06,23.90
2009,07,25,17,07,23.90
2009,07,25,17,08,23.90
2009,07,25,17,09,23.80
2009,07,25,17,10,23.70
2009,07,25,17,11,23.70
2009,07,25,17,12,23.80
2009,07,25,17,13,23.80
2009,07,25,17,14,23.90
2009,07,25,17,15,23.90
2009,07,25,17,16,23.90
2009,07,25,17,17,23.90
2009,07,25,17,18,23.90
2009,07,25,17,19,23.90
2009,07,25,17,20,23.90
2009,07,25,17,21,23.90
2009,07,25,17,22,23.90
2009,07,25,17,23,23.90